User: anonymous   Login
Location: Larrial
(48.2758°N, 4.5331°W)
Time: 15:58:04
(UTC+00:00)
Language:

Cosmos 2366 rocket - Orbit

View from above orbital plane
View from above orbital plane
View from above satellite
View from above satellite

Ground track
Ground track

The orbit data is extracted from the following two-line orbital elements,

1 25893U 99045B   20185.19838274  .00000026  00000-0  11065-4 0  9997
2 25893  82.9271 276.7265 0027761 222.9544 196.9961 13.76527334 47636
Epoch (UTC): 03 July 2020 04:45:40
Eccentricity: 0.0027761
inclination: 82.9271°
perigee height: 956 km
apogee height: 996 km
right ascension of ascending node: 276.7265°
argument of perigee: 222.9544°
revolutions per day: 13.76527334
mean anomaly at epoch: 196.9961°
orbit number at epoch: 4763

The dashed part of the orbit path shows where the satellite is in the earth's shadow,  

DLR